| time (UTC) | temp C | wind direction | speed KPH | gust KPH | rain 1hr cm | rain 24hr cm | rain mn cm | humidity % | barometer mb |
| 20260504023046 | 7 | 0 | 0.0 | 0.0 | 0.00 | 0.00 | 0.00 | 86 | 1017.3 |
| 20260504021550 | 7 | 0 | 0.0 | 0.0 | 0.00 | 0.00 | 0.00 | 85 | 1017.1 |
| 20260504020058 | 7 | 0 | 0.0 | 0.0 | 0.00 | 0.00 | 0.00 | 84 | 1016.8 |
| 20260504014551 | 8 | 0 | 0.0 | 0.0 | 0.00 | 0.00 | 0.00 | 83 | 1016.7 |
| 20260504013048 | 8 | 0 | 0.0 | 0.0 | 0.00 | 0.00 | 0.00 | 81 | 1016.4 |
| 20260504011553 | 9 | 0 | 0.0 | 0.0 | 0.00 | 0.00 | 0.00 | 80 | 1016.6 |
| 20260504010054 | 10 | 0 | 0.0 | 0.0 | 0.00 | 0.00 | 0.00 | 77 | 1016.6 |
| 20260504004549 | 11 | 0 | 0.0 | 0.0 | 0.00 | 0.00 | 0.00 | 75 | 1016.6 |
| 20260504003052 | 11 | 0 | 0.0 | 0.0 | 0.00 | 0.00 | 0.00 | 73 | 1016.6 |
| 20260504001553 | 12 | 0 | 0.0 | 0.0 | 0.00 | 0.00 | 0.00 | 70 | 1016.7 |
| 20260504000053 | 13 | 0 | 0.0 | 3.2 | 0.00 | 0.00 | 0.00 | 66 | 1017.0 |
| 20260503234615 | 15 | 0 | 0.0 | 4.8 | 0.00 | 0.00 | 0.00 | 64 | 1017.2 |
| 20260503233052 | 15 | 0 | 0.0 | 6.4 | 0.00 | 0.00 | 0.00 | 59 | 1017.2 |
| 20260503231553 | 16 | 0 | 0.0 | 3.2 | 0.00 | 0.00 | 0.00 | 58 | 1017.2 |
| 20260503230048 | 17 | 0 | 0.0 | 9.7 | 0.00 | 0.00 | 0.00 | 47 | 1017.2 |
| 20260503224550 | 17 | 0 | 1.6 | 9.7 | 0.00 | 0.00 | 0.00 | 43 | 1017.4 |
| 20260503223047 | 18 | 207 | 1.6 | 16.1 | 0.00 | 0.00 | 0.00 | 42 | 1017.5 |
| 20260503221559 | 18 | 271 | 1.6 | 14.5 | 0.00 | 0.00 | 0.00 | 43 | 1017.7 |
| 20260503220055 | 18 | 0 | 3.2 | 16.1 | 0.00 | 0.00 | 0.00 | 42 | 1017.9 |
| 20260503214549 | 18 | 200 | 4.8 | 14.5 | 0.00 | 0.00 | 0.00 | 44 | 1018.2 |
| 20260503213050 | 18 | 206 | 4.8 | 9.7 | 0.00 | 0.00 | 0.00 | 40 | 1018.3 |
| 20260503211552 | 18 | 163 | 3.2 | 19.3 | 0.00 | 0.00 | 0.00 | 42 | 1018.4 |
| 20260503210047 | 18 | 348 | 3.2 | 16.1 | 0.00 | 0.00 | 0.00 | 39 | 1018.5 |
| 20260503204556 | 18 | 195 | 3.2 | 12.9 | 0.00 | 0.00 | 0.00 | 39 | 1019.1 |
| 20260503203056 | 18 | 164 | 4.8 | 11.3 | 0.00 | 0.00 | 0.00 | 43 | 1019.1 |
| 20260503201551 | 18 | 153 | 1.6 | 11.3 | 0.00 | 0.00 | 0.00 | 43 | 1019.5 |
| 20260503200056 | 17 | 162 | 4.8 | 12.9 | 0.00 | 0.00 | 0.00 | 38 | 1019.8 |
| 20260503194558 | 17 | 202 | 4.8 | 17.7 | 0.00 | 0.00 | 0.00 | 40 | 1020.0 |
| 20260503193440 | 17 | 101 | 1.6 | 14.5 | 0.00 | 0.00 | 0.00 | 37 | 1020.2 |
| 20260503191555 | 17 | 153 | 4.8 | 16.1 | 0.00 | 0.00 | 0.00 | 40 | 1020.3 |
| 20260503190049 | 17 | 246 | 1.6 | 8.0 | 0.00 | 0.00 | 0.00 | 45 | 1020.4 |
| 20260503184551 | 16 | 273 | 1.6 | 16.1 | 0.00 | 0.00 | 0.00 | 44 | 1020.7 |
| 20260503183052 | 16 | 193 | 1.6 | 12.9 | 0.00 | 0.00 | 0.00 | 46 | 1020.9 |
| 20260503181551 | 16 | 202 | 1.6 | 12.9 | 0.00 | 0.00 | 0.00 | 47 | 1021.2 |
| 20260503180059 | 16 | 205 | 1.6 | 16.1 | 0.00 | 0.00 | 0.00 | 49 | 1021.3 |
| 20260503174549 | 15 | 204 | 3.2 | 12.9 | 0.00 | 0.00 | 0.00 | 50 | 1021.6 |
| 20260503173046 | 15 | 293 | 1.6 | 12.9 | 0.00 | 0.00 | 0.00 | 49 | 1021.8 |
| 20260503171552 | 15 | 336 | 1.6 | 11.3 | 0.00 | 0.00 | 0.00 | 46 | 1022.0 |
| 20260503110106 | 1 | 0 | 0.0 | 0.0 | 0.00 | 0.00 | 0.00 | 95 | 1021.7 |
| 20260503081545 | 1 | 0 | 0.0 | 0.0 | 0.00 | 0.00 | 0.00 | 94 | 1021.1 |
| 20260503071602 | 2 | 0 | 0.0 | 0.0 | 0.00 | 0.00 | 0.00 | 94 | 1020.7 |
| 20260503060110 | 3 | 0 | 0.0 | 0.0 | 0.00 | 0.00 | 0.00 | 94 | 1020.6 |
| 20260503054556 | 3 | 0 | 0.0 | 0.0 | 0.00 | 0.00 | 0.00 | 93 | 1020.6 |
| 20260503053051 | 3 | 0 | 0.0 | 0.0 | 0.00 | 0.00 | 0.00 | 93 | 1020.7 |
| 20260503051545 | 3 | 0 | 0.0 | 0.0 | 0.00 | 0.00 | 0.00 | 93 | 1020.6 |
| 20260503050050 | 3 | 0 | 0.0 | 0.0 | 0.00 | 0.00 | 0.00 | 93 | 1020.4 |
| 20260503044550 | 3 | 0 | 0.0 | 0.0 | 0.00 | 0.00 | 0.00 | 93 | 1020.4 |
| 20260503043050 | 3 | 0 | 0.0 | 0.0 | 0.00 | 0.00 | 0.00 | 92 | 1020.5 |
| 20260503041551 | 4 | 0 | 0.0 | 0.0 | 0.00 | 0.00 | 0.00 | 92 | 1020.3 |
| 20260503040104 | 4 | 0 | 0.0 | 0.0 | 0.00 | 0.00 | 0.00 | 92 | 1020.2 |
| 20260503034546 | 5 | 0 | 0.0 | 0.0 | 0.00 | 0.00 | 0.00 | 92 | 1020.1 |